This is the latest recevied weather packets stored in our database for station/object KN6ETB-1. If no packets are shown the sender has not sent any weather packets the latest 10 day(s).
| Time | Temp. | Humidity | Pressure | Rain* | Wind** | Luminosity | Snow |
|---|---|---|---|---|---|---|---|
| 1777771021 | 17.78° C | 68% | 1007 hPa | 0 mm | - | 118 W/m² | - |
| 1777770718 | 18.33° C | 68% | 1007.3 hPa | 0 mm | - | 131 W/m² | - |
| 1777770413 | 18.89° C | 68% | 1006.8 hPa | 0 mm | - | 135 W/m² | - |
| 1777770105 | 18.89° C | 67% | 1007.1 hPa | 0 mm | - | 170 W/m² | - |
| 1777769802 | 18.33° C | 67% | 1006.9 hPa | 0 mm | - | 181 W/m² | - |
| 1777769499 | 18.89° C | 67% | 1007.1 hPa | 0 mm | - | 168 W/m² | - |
| 1777769196 | 18.89° C | 67% | 1007.1 hPa | 0 mm | - | 181 W/m² | - |
| 1777768894 | 18.89° C | 66% | 1007 hPa | 0 mm | - | 167 W/m² | - |
| 1777768591 | 18.89° C | 67% | 1007 hPa | 0 mm | - | 200 W/m² | - |
| 1777768288 | 18.89° C | 67% | 1007.1 hPa | 0 mm | - | 203 W/m² | - |
| 1777767985 | 18.89° C | 67% | 1007 hPa | 0 mm | - | 239 W/m² | - |
| 1777767682 | 18.89° C | 67% | 1007.1 hPa | 0 mm | - | 209 W/m² | - |
| 1777767378 | 18.89° C | 66% | 1007.1 hPa | 0 mm | - | 280 W/m² | - |
| 1777767075 | 18.89° C | 66% | 1007.4 hPa | 0 mm | - | 229 W/m² | - |
| 1777766772 | 18.89° C | 66% | 1007.1 hPa | 0 mm | - | 275 W/m² | - |
| 1777766469 | 19.44° C | 65% | 1007.5 hPa | 0 mm | - | 283 W/m² | - |
| 1777766166 | 20° C | 64% | 1007.5 hPa | 0 mm | - | 249 W/m² | - |
| 1777765864 | 19.44° C | 65% | 1007.7 hPa | 0 mm | - | 306 W/m² | - |
| 1777765559 | 20° C | 64% | 1007.5 hPa | 0 mm | - | 304 W/m² | - |
| 1777765258 | 20° C | 63% | 1007.7 hPa | 0 mm | - | 448 W/m² | - |
| 1777764957 | 20° C | 63% | 1007.9 hPa | 0 mm | - | 375 W/m² | - |
| 1777764655 | 20° C | 62% | 1008 hPa | 0 mm | - | 430 W/m² | - |
| 1777764351 | 20° C | 63% | 1007.7 hPa | 0 mm | - | 441 W/m² | - |
| 1777764048 | 20° C | 64% | 1007.7 hPa | 0 mm | - | 393 W/m² | - |
| 1777763745 | 20.56° C | 63% | 1007.9 hPa | 0 mm | - | 411 W/m² | - |
* Rain latest hour (hover to see other rain measurements)
** Current wind speed in m/s (hover to see current wind gust speed)